RH
56 53 52 50 48 48 49 44 34 23 16 15 16 18 19 20 22 24 27 29 30 32 32 32 31 29 26 24 21 18 14 11 9 7 5 4 3 3 3 2 2 2 2 2 2 2 2 2 2 2 2 2 2 2 2 2 2 2 2 2 2 2 2 1 1 1 1 1 1 1 1 1 1 1 1 2 2 2 2 2 2 2 2 2 2 2
61 58 56 54 54 54 51 39 28 19 16 18 19 20 21 22 24 26 28 30 31 31 31 30 27 24 21 18 15 12 10 8 6 5 4 4 3 3 3 2 2 2 2 2 2 2 2 2 2 2 2 2 2 2 2 2 2 2 2 2 2 2 2 2 2 2 2 2 2 2 1 1 1 1 1 1 1 2 2 2 2 2 2 2 2 2
64 61 60 61 60 57 47 34 26 22 22 22 22 23 24 24 26 27 29 29 29 28 26 24 21 18 15 12 10 8 7 6 6 5 4 4 3 3 3 2 2 2 2 2 2 2 2 2 2 2 2 2 2 2 2 2 2 2 2 2 2 2 2 2 2 2 2 2 2 2 2 2 2 2 2 2 2 2 2 2 2 2 2 2 2 2
66 65 66 66 62 53 41 33 28 26 25 24 24 25 26 26 27 27 28 26 24 22 20 17 15 12 10 10 8 7 6 6 6 5 4 4 3 3 2 2 2 2 2 2 2 2 2 2 2 2 2 2 2 2 2 2 3 3 3 3 3 3 3 2 2 2 2 2 2 2 2 2 2 2 2 2 2 2 2 2 2 2 2 2 2 2
69 69 70 66 56 45 36 32 29 27 26 25 26 26 26 26 26 25 24 22 19 16 14 12 10 10 9 8 8 7 7 6 5 4 4 3 3 3 3 3 3 2 2 2 2 2 2 2 2 2 2 3 3 3 3 3 3 3 3 3 3 3 3 3 3 3 3 3 3 2 2 2 2 2 2 2 2 2 2 2 2 2 2 2 2 2
70 69 66 56 45 36 32 29 27 25 24 24 24 24 24 23 22 20 18 16 14 12 10 9 9 9 9 8 8 8 7 6 5 4 4 3 3 3 3 3 3 3 3 3 3 3 3 3 3 3 3 3 4 4 4 4 4 4 4 4 4 3 3 3 3 3 3 3 3 3 3 3 2 2 2 2 2 2 2 2 2 2 2 2 2 2
66 61 51 42 34 30 28 26 24 23 22 22 22 21 20 19 18 16 14 12 10 10 8 8 9 9 9 8 8 7 6 5 4 4 3 3 3 3 3 3 3 3 3 3 3 3 3 4 4 4 4 4 4 4 4 4 4 4 4 4 4 4 4 4 3 3 3 3 3 3 3 3 3 2 2 2 2 2 2 2 2 2 2 2 2 2
52 45 36 31 28 26 24 23 22 21 20 19 18 17 16 14 13 12 10 10 9 8 8 8 8 8 8 8 7 6 6 4 4 3 3 3 4 4 3 3 3 3 3 3 4 4 4 4 4 4 5 5 5 5 5 5 4 4 4 4 4 4 4 4 4 4 3 3 3 3 3 3 3 3 2 2 2 2 2 2 2 2 2 2 2 1
37 32 28 26 25 24 23 22 20 19 18 16 15 14 12 11 10 9 8 8 8 8 8 8 8 8 8 7 6 6 4 4 4 3 3 3 3 3 3 3 3 3 3 4 4 4 4 4 4 5 5 5 5 5 5 5 5 5 5 4 4 4 4 4 4 4 4 3 3 3 3 3 3 3 2 2 2 2 2 2 2 2 2 2 1 1
28 27 27 27 26 24 22 21 19 17 16 14 12 11 10 9 8 8 8 8 8 8 8 8 8 8 7 6 5 4 4 3 3 3 3 3 3 3 3 3 3 3 3 4 4 4 4 4 5 5 6 6 6 6 6 5 5 5 5 5 5 5 4 4 4 4 4 4 4 3 3 3 3 3 3 2 2 2 2 2 2 2 2 1 1 1
28 29 29 28 26 24 22 19 17 15 13 12 11 10 10 9 9 8 8 8 8 8 8 8 8 7 6 5 4 4 3 3 3 3 3 3 3 3 3 3 3 3 3 3 4 4 4 5 5 5 6 6 6 6 6 6 6 6 5 5 5 5 5 4 4 4 4 4 4 4 3 3 3 3 3 3 2 2 2 2 2 2 2 2 1 1
32 32 31 29 26 23 20 17 15 13 11 10 10 9 9 9 9 9 8 8 8 8 8 7 7 6 5 4 3 3 3 2 2 2 2 2 2 2 2 2 3 3 3 3 4 4 4 5 5 5 6 6 6 6 6 6 6 6 6 6 6 5 5 5 5 4 4 4 4 4 4 4 3 3 3 3 3 3 2 2 2 2 2 2 2 1
36 34 31 28 24 21 18 15 12 11 10 9 9 8 9 10 10 10 9 8 8 8 7 6 6 5 4 3 2 2 2 2 2 2 2 2 2 2 2 2 2 2 3 3 4 4 4 4 5 5 6 6 6 6 6 6 6 6 6 6 6 6 6 5 5 5 5 4 4 4 4 4 4 4 4 4 3 3 3 3 2 2 2 2 2 2
37 33 29 25 22 18 15 13 11 10 9 8 8 8 9 10 10 10 9 8 8 7 6 6 5 4 3 2 2 2 2 2 2 2 2 2 2 2 2 2 2 2 2 3 3 4 4 4 5 5 6 6 6 6 6 6 6 6 6 6 6 6 6 6 6 5 5 5 5 4 4 4 4 4 4 4 4 4 3 3 3 3 2 2 2 2
34 30 26 22 19 16 13 12 10 9 8 8 8 8 8 9 10 10 10 9 8 8 6 5 4 4 3 2 2 2 2 2 2 2 2 2 2 2 2 2 2 2 2 3 3 4 4 4 5 6 6 6 6 6 7 7 7 7 7 7 7 7 6 6 6 6 6 6 5 5 5 5 5 5 4 4 4 4 4 3 3 3 3 3 2 2
32 28 24 20 18 15 13 11 10 10 8 8 8 8 8 8 8 10 10 10 10 8 7 6 5 4 3 3 3 3 3 3 3 2 2 2 2 2 2 2 2 2 2 3 3 4 4 5 5 6 6 6 6 7 7 7 7 7 7 7 7 7 7 7 7 6 6 6 6 6 6 6 6 5 5 5 4 4 4 4 4 4 3 3 3 3
30 26 23 20 18 15 14 12 11 10 10 9 8 8 7 7 8 8 10 10 10 10 8 8 6 6 5 4 4 4 4 4 4 4 3 3 3 3 3 2 2 2 3 3 4 4 4 5 5 6 6 6 7 7 7 7 7 8 8 8 8 8 8 8 7 7 7 7 7 6 6 6 6 6 6 5 5 4 4 4 4 4 4 4 4 3
30 27 24 21 19 16 15 14 13 12 12 11 10 10 8 8 8 8 8 9 9 10 10 9 8 7 6 6 6 6 6 5 5 5 5 4 4 4 4 4 3 3 3 4 4 4 4 5 5 6 6 6 7 7 7 7 8 8 8 8 8 8 8 8 8 8 8 8 8 7 7 7 7 6 6 6 5 5 4 4 4 4 4 4 4 4
32 29 26 24 21 20 18 17 16 15 14 14 13 12 10 10 8 8 8 8 8 8 8 8 8 8 8 8 8 7 7 7 7 7 6 6 6 6 5 5 4 4 4 4 4 5 5 5 5 6 6 6 6 7 7 7 8 8 8 8 8 8 8 8 8 8 8 8 8 8 8 8 8 7 7 6 6 5 5 5 5 5 5 5 5 4
34 32 29 27 25 23 22 21 20 19 18 16 16 14 13 12 11 10 9 8 8 7 7 8 8 8 8 9 9 8 8 8 8 8 8 8 8 7 7 6 6 6 5 5 5 5 5 5 5 6 6 6 6 7 7 7 8 8 8 8 9 9 9 9 10 10 10 10 10 10 9 9 8 8 8 7 6 6 5 5 5 5 6 6 6 5
37 35 34 32 30 28 27 26 25 23 21 20 18 17 16 14 13 12 11 10 8 8 7 7 7 7 8 8 9 9 8 9 9 10 9 10 9 9 8 8 8 7 7 6 6 6 6 5 5 6 6 6 6 6 7 7 8 8 8 8 9 9 10 10 10 10 10 10 10 10 10 10 9 8 8 8 7 6 6 5 6 6 6 6 6 6
42 40 39 38 36 35 34 32 30 28 26 24 22 20 18 16 15 14 12 11 10 9 8 7 7 7 7 8 8 8 8 9 10 10 10 10 10 10 10 10 9 9 8 8 7 7 6 6 6 6 6 6 6 6 7 7 7 8 8 8 9 10 10 10 11 11 11 11 11 11 10 10 10 10 8 8 7 6 6 6 6 6 6 6 6 6
48 47 46 45 44 43 42 40 38 35 32 29 26 24 22 19 18 16 14 13 12 10 9 8 8 7 7 7 8 8 9 9 10 10 10 11 11 11 11 10 10 10 10 9 8 8 7 6 6 6 6 6 6 6 6 7 7 7 8 8 9 10 10 10 11 11 11 12 11 11 11 11 10 10 10 8 8 7 6 6 6 6 7 7 7 6
54 54 54 53 52 51 50 48 45 42 39 35 32 28 26 23 20 18 16 15 14 12 11 10 9 8 7 8 8 8 9 9 9 10 10 11 11 12 11 11 11 11 11 10 10 8 8 7 7 6 6 6 6 6 6 7 7 7 8 8 9 10 10 10 11 11 12 12 12 12 12 12 12 11 10 9 8 7 6 6 6 7 7 7 7 6
60 61 60 60 59 58 57 54 52 48 44 40 37 33 29 26 24 21 19 18 16 14 12 11 10 9 8 8 8 8 9 9 9 10 10 10 11 11 12 11 12 12 11 11 10 10 8 8 7 7 6 6 6 6 6 6 7 7 8 8 9 9 10 10 11 11 12 12 12 13 13 13 12 12 11 10 8 8 6 6 6 7 8 8 7 6
66 66 66 65 64 62 60 58 55 52 48 44 40 36 32 29 26 24 21 19 17 15 14 12 11 10 10 10 9 9 10 10 10 10 10 10 10 11 11 11 11 12 12 11 10 10 9 8 8 7 7 7 6 6 6 7 7 7 8 8 8 9 10 10 11 12 12 12 13 13 14 14 14 13 12 10 9 8 7 6 7 7 8 8 7 7
71 70 68 67 66 64 61 58 56 53 50 46 42 38 35 31 28 25 22 20 19 17 15 14 12 12 11 10 10 10 10 10 10 10 10 10 10 10 11 11 11 12 12 11 11 10 10 8 8 8 7 7 7 6 6 7 7 7 8 8 8 9 10 10 11 12 12 13 14 14 14 14 14 14 13 11 10 8 7 6 7 7 8 8 7 7
72 71 69 67 65 63 60 57 54 52 49 46 42 40 36 32 29 26 24 22 20 18 16 15 14 13 12 12 12 11 11 11 10 10 10 9 10 10 10 11 11 11 12 11 11 10 10 9 8 8 7 7 7 7 7 7 7 7 8 8 8 9 10 10 11 12 12 13 14 15 15 16 15 15 14 12 10 8 7 6 7 7 8 8 7 7
71 69 67 65 63 61 58 56 53 50 47 45 42 40 37 34 30 28 26 24 22 20 18 18 16 15 14 14 13 13 12 12 11 10 10 10 10 10 10 11 11 11 11 11 11 11 10 10 9 8 8 7 7 7 7 7 7 7 8 8 8 9 10 10 11 12 13 14 14 15 16 16 16 16 15 13 11 9 7 7 7 7 8 8 8 7
68 66 64 62 60 58 56 54 51 49 47 44 42 40 38 35 32 30 28 26 24 22 20 20 18 18 16 16 16 15 14 14 12 11 10 10 10 10 11 11 11 11 11 11 11 11 10 10 9 8 8 8 7 7 7 7 7 7 8 8 8 9 10 10 11 12 13 14 15 16 16 17 17 17 16 14 11 9 8 7 7 7 8 8 8 8
65 64 62 60 58 57 55 53 50 48 46 44 42 40 38 36 34 32 30 27 25 24 22 21 20 20 18 18 18 16 16 15 14 12 12 11 11 11 11 12 12 12 11 11 11 11 11 10 10 9 8 8 8 7 7 7 7 7 7 8 8 9 10 10 11 12 13 14 15 16 17 18 18 18 16 14 12 10 8 7 7 7 8 8 8 8
62 61 60 58 57 55 54 52 50 48 46 44 42 40 39 37 35 33 31 29 27 26 24 23 22 21 20 20 19 18 18 17 16 14 13 13 12 12 12 12 12 12 12 12 12 11 11 11 10 10 9 8 8 8 7 7 7 7 7 8 8 8 10 10 11 12 13 14 16 16 18 18 19 18 18 15 13 10 8 7 7 7 8 8 8 8
59 58 58 57 56 55 53 52 50 49 47 45 43 42 40 38 36 35 33 31 30 28 26 25 24 23 22 21 20 20 20 19 18 16 15 14 14 14 14 14 13 13 13 12 12 12 12 12 11 10 10 9 8 8 7 7 7 7 7 7 8 8 9 10 11 12 13 14 16 17 18 19 20 19 18 16 13 10 8 7 7 7 8 8 8 8
52 52 53 54 54 53 53 52 51 50 48 46 45 43 42 40 38 37 35 34 32 30 29 28 26 26 24 23 22 22 22 21 20 18 17 16 16 15 15 15 14 14 14 14 13 12 12 12 12 12 11 10 9 8 8 7 7 7 7 7 8 8 9 10 11 12 13 14 16 18 19 20 20 20 19 17 14 11 8 7 7 7 8 8 8 9
40 42 44 46 47 49 50 50 50 50 49 47 46 44 43 42 40 38 37 36 34 33 32 30 29 28 27 26 25 24 24 23 22 20 19 18 17 16 16 16 16 15 15 14 14 14 13 13 13 12 12 11 10 9 8 8 7 7 7 8 8 8 9 10 11 12 13 14 16 18 19 20 21 21 20 18 15 12 8 7 7 7 8 8 9 10
29 31 33 35 38 40 42 44 45 46 46 46 46 45 44 42 41 40 39 38 36 35 34 32 31 30 29 28 28 27 26 25 24 22 20 20 19 18 18 17 17 16 16 15 15 14 14 14 13 13 13 12 11 10 9 8 8 8 8 8 8 8 10 10 11 12 13 14 16 18 19 21 22 22 21 18 16 12 9 7 6 7 8 8 9 10
22 23 24 26 28 31 33 35 38 40 41 42 42 42 42 42 42 41 40 39 38 37 36 35 34 32 31 30 30 29 29 28 26 24 23 22 20 20 19 19 18 18 17 16 16 15 14 14 14 14 13 13 12 11 10 9 8 8 8 8 8 9 10 10 11 12 13 15 16 18 19 21 22 22 22 20 16 13 10 8 6 7 8 8 9 10
22 22 22 22 24 26 28 30 32 34 35 36 38 38 39 39 40 40 40 40 39 38 38 36 36 34 34 33 32 32 31 30 29 28 26 24 23 22 21 21 20 19 18 18 16 16 15 15 14 14 14 13 13 12 11 10 9 8 8 8 8 9 10 10 12 12 14 15 16 18 19 21 22 22 22 20 18 14 10 8 6 6 8 8 10 10
26 25 24 24 24 25 26 28 30 31 32 33 34 35 36 36 37 38 38 38 39 39 38 38 37 37 36 36 35 34 34 34 32 31 29 27 26 24 24 23 22 21 20 19 18 18 16 16 15 15 14 14 14 13 12 11 10 8 8 8 8 9 10 11 12 12 14 15 16 18 19 21 22 23 23 21 18 15 11 8 7 6 7 8 10 10
32 31 30 29 28 28 28 28 29 30 32 32 34 34 35 36 36 36 36 37 38 38 39 39 39 38 38 38 38 37 37 36 35 34 33 31 29 27 26 26 24 24 22 21 20 20 18 18 16 16 15 15 14 14 13 12 10 10 8 8 9 10 10 11 12 13 14 15 16 18 19 21 22 23 24 22 20 16 12 9 7 6 7 8 10 10
35 36 36 35 34 33 32 32 31 31 32 34 35 36 37 38 38 38 38 38 38 38 39 39 40 40 40 40 40 40 39 38 38 37 36 34 32 31 29 28 27 26 25 24 23 22 21 20 19 18 17 16 15 14 14 12 11 10 9 8 9 10 10 11 12 13 14 15 16 18 19 21 22 24 24 23 21 18 14 10 7 6 6 8 10 10
34 35 36 36 37 37 37 36 36 35 34 36 37 38 40 40 40 41 40 40 40 40 40 40 41 42 42 42 42 42 41 40 40 38 38 36 35 34 32 31 30 28 28 27 26 25 24 23 22 20 19 18 16 16 14 13 12 10 10 9 9 10 10 11 12 13 14 15 16 18 19 21 22 24 24 24 22 19 15 11 8 6 6 8 10 11
30 31 32 32 34 36 38 39 40 40 40 39 40 40 40 41 42 42 43 43 42 42 41 41 41 42 43 44 44 44 43 42 41 40 39 38 37 36 34 33 32 31 30 30 29 28 26 26 24 23 22 20 19 17 16 14 13 11 10 9 9 9 10 11 12 13 14 15 16 18 19 20 22 24 24 24 23 20 17 13 10 7 6 7 9 11
28 28 28 28 30 31 33 36 38 40 42 42 42 42 42 42 42 44 44 45 44 44 43 42 42 43 44 45 46 46 46 44 43 42 41 40 39 38 36 35 34 33 32 32 31 30 29 28 27 26 24 23 21 19 17 15 14 12 10 10 9 9 10 11 12 13 14 15 16 18 19 20 22 23 24 24 24 22 19 15 11 8 6 6 8 10
26 26 26 26 26 27 28 30 33 36 39 42 43 44 44 43 44 44 45 46 46 46 45 45 45 46 47 47 48 49 49 48 46 44 43 42 40 39 38 37 36 35 34 34 33 32 32 30 29 28 26 25 23 21 19 16 15 13 11 10 9 9 10 10 12 13 14 15 16 18 19 20 22 23 24 25 24 23 20 17 13 10 7 6 7 9
24 24 24 24 24 24 25 26 28 31 34 38 40 42 44 44 44 45 45 46 46 46 46 46 46 48 49 50 50 50 50 50 49 48 46 44 42 40 40 38 38 36 36 35 34 33 32 32 31 30 28 26 25 23 21 18 16 14 12 10 10 9 9 10 11 12 14 15 16 17 18 20 21 23 24 26 25 24 22 19 16 12 8 7 7 8
22 22 22 22 23 23 24 25 26 28 30 33 36 40 42 44 44 45 45 45 45 46 46 46 47 48 50 50 51 51 50 50 50 50 49 46 44 42 40 40 38 37 36 36 34 34 32 32 31 30 29 27 26 24 22 20 18 15 13 11 10 9 9 10 11 12 13 14 16 17 18 20 21 23 24 25 26 25 24 21 18 14 11 8 7 7
22 22 22 22 22 22 23 24 24 26 28 31 34 37 40 42 44 45 45 46 46 46 46 47 48 50 50 51 51 52 52 51 51 51 50 48 46 43 42 40 39 38 37 36 35 34 33 32 31 30 29 28 26 24 22 20 18 16 14 12 10 10 10 10 11 12 13 14 16 16 18 20 21 22 24 24 25 25 24 22 20 17 14 11 8 7
22 22 22 22 22 23 23 23 24 26 28 30 32 35 39 42 44 45 46 47 47 48 49 50 51 52 52 52 52 52 53 52 52 52 52 50 47 44 42 41 40 38 37 36 35 34 33 32 31 30 28 27 26 24 22 21 19 17 15 13 12 10 10 10 11 12 13 14 15 16 18 19 20 22 23 24 25 25 25 24 22 19 16 14 11 8
22 22 23 23 23 24 24 23 24 25 27 29 32 35 38 41 44 46 48 49 50 50 51 52 53 53 53 53 53 53 53 52 52 52 52 50 48 46 44 42 40 39 38 36 36 34 34 32 31 30 28 26 25 24 22 21 19 17 15 14 12 11 10 10 11 12 13 14 15 16 17 18 20 21 22 23 24 24 25 24 23 21 19 16 14 11
23 24 24 24 24 24 24 24 24 25 26 28 31 34 37 40 43 46 48 50 51 52 54 54 54 55 55 54 54 54 54 53 52 51 51 50 49 47 45 44 42 40 37 36 35 34 34 32 31 30 28 26 25 24 22 21 20 18 16 14 13 12 11 11 12 12 13 14 15 16 17 18 19 20 21 22 23 24 24 24 24 23 21 18 16 14
Wind_Speed
59 58 58 58 57 56 54 53 52 51 51 51 52 52 52 52 51 51 50 50 50 50 49 49 49 49 48 48 48 48 48 48 47 47 47 47 46 46 46 46 46 46 46 47 47 48 48 49 50 50 51 51 51 52 52 52 52 52 52 53 53 53 54 54 55 56 57 58 59 60 61 62 62 63 63 63 63 63 63 63 63 63 63 63 63 64
59 59 58 58 56 55 53 52 51 51 51 51 52 52 52 52 51 50 50 50 49 49 49 48 48 48 48 48 48 47 47 46 46 46 46 45 45 45 45 45 45 46 46 47 47 48 49 49 50 50 51 51 51 51 51 51 52 52 52 52 52 53 53 54 55 55 56 58 59 60 61 62 63 63 64 64 65 65 65 65 65 64 64 64 64 64
59 59 58 57 55 54 52 51 51 51 51 51 52 52 52 51 51 50 50 49 49 49 48 48 48 48 48 47 47 47 46 45 45 45 45 45 44 44 44 45 45 46 46 47 47 48 49 49 50 50 50 51 51 51 51 51 51 51 51 51 52 52 53 54 54 55 56 58 59 60 61 62 63 64 64 65 66 66 66 66 66 66 66 66 66 66
58 58 57 55 54 52 51 50 50 51 51 51 51 51 51 50 50 50 50 49 49 49 48 48 48 48 48 47 47 46 45 44 44 44 44 44 44 44 44 44 45 45 46 47 47 48 49 49 49 50 50 50 50 50 50 50 50 50 50 51 51 52 53 54 55 56 57 58 59 60 61 62 63 64 65 65 66 67 67 67 68 68 68 68 68 68
56 55 54 52 51 50 49 49 49 50 50 50 50 50 49 49 49 49 49 49 49 48 48 48 47 47 47 47 46 45 45 44 43 43 44 44 44 44 44 44 45 45 46 47 47 48 48 49 49 49 49 49 49 49 49 49 49 50 50 50 51 52 53 54 54 55 56 57 58 59 60 61 62 63 64 65 66 66 67 68 68 69 69 69 69 69
52 51 50 49 48 48 48 48 48 48 48 48 48 48 48 48 48 49 49 49 48 48 47 47 47 47 47 46 45 45 44 43 43 43 43 43 43 44 44 45 45 45 46 47 47 47 48 48 48 48 48 48 48 48 48 48 49 49 50 50 51 52 52 53 54 55 56 57 57 58 59 60 61 62 63 64 64 65 66 67 68 68 69 69 70 70
47 47 47 46 46 46 46 47 47 47 47 47 46 46 46 47 47 48 48 48 47 47 46 46 46 46 46 45 45 44 43 43 43 42 42 43 43 44 44 45 45 46 46 46 47 47 47 47 47 47 47 47 47 47 48 48 48 49 49 50 50 51 52 53 53 54 55 56 56 57 58 58 59 60 61 62 63 64 65 66 67 68 69 69 70 71
44 44 45 45 45 45 45 46 45 45 45 45 45 45 45 45 46 47 47 47 46 46 45 45 45 45 45 44 44 43 43 43 42 42 42 43 43 44 44 45 45 46 46 46 46 46 46 46 46 46 46 46 46 47 47 47 48 48 49 49 50 51 51 52 52 53 54 54 55 55 56 57 57 58 59 60 61 62 63 64 65 66 68 69 70 71
43 43 44 44 45 45 45 44 44 44 44 44 43 43 43 44 45 45 46 46 45 45 44 44 44 44 44 43 43 43 43 43 42 42 42 43 43 44 44 45 45 45 46 46 46 46 46 45 45 45 45 45 46 46 46 47 47 48 48 49 49 50 50 51 51 52 52 53 53 54 54 55 56 56 57 58 58 59 61 62 63 65 66 67 68 70
43 43 44 44 44 44 44 43 43 43 42 42 42 42 42 43 44 44 45 45 44 44 43 43 43 43 43 43 43 43 43 43 42 42 42 42 43 43 44 44 45 45 45 45 45 45 45 45 44 44 44 45 45 46 46 47 47 47 48 48 49 49 50 50 50 51 51 52 52 53 53 53 54 54 55 56 56 57 58 60 61 62 64 65 66 68
43 43 43 43 43 43 43 43 42 42 41 41 41 41 41 42 43 43 44 44 43 43 43 43 43 42 42 42 43 43 42 42 42 42 42 42 43 43 44 44 44 45 45 45 45 44 44 44 44 44 44 44 45 45 46 46 47 47 47 48 48 49 49 49 50 50 51 51 51 51 52 52 52 53 53 54 55 55 56 57 58 60 61 62 63 65
43 42 42 42 42 42 42 42 41 41 41 40 40 40 40 41 42 42 42 42 42 42 42 42 42 42 42 42 42 42 42 42 42 41 41 42 42 43 43 44 44 44 44 44 44 44 44 44 44 44 44 44 45 45 45 46 46 47 47 48 48 48 49 49 49 50 50 50 50 50 51 51 51 52 52 52 53 54 54 55 56 57 58 59 60 62
42 41 41 41 41 42 41 41 41 40 40 39 39 39 39 40 40 41 41 42 42 42 42 42 42 42 42 42 42 42 42 41 41 41 41 42 42 43 43 43 43 44 44 44 44 44 44 44 44 44 44 44 44 45 45 46 46 47 47 47 48 48 48 48 49 49 49 49 50 50 50 50 50 51 51 51 52 52 53 53 54 55 56 57 58 59
41 41 41 41 41 41 41 41 40 39 39 38 38 38 38 39 39 40 41 41 41 41 41 41 41 41 41 41 41 41 41 41 41 41 41 42 42 43 43 43 43 43 44 44 44 44 44 44 44 44 44 44 44 45 45 46 46 47 47 47 47 47 48 48 48 48 48 49 49 49 49 50 50 50 50 50 51 51 51 52 52 53 54 55 56 57
41 41 41 41 41 41 40 40 39 38 37 37 37 37 37 38 39 39 40 41 41 41 41 41 41 41 41 41 41 41 41 41 40 41 41 42 42 43 43 43 43 43 43 44 44 44 44 43 43 43 44 44 44 45 45 46 46 46 46 46 47 47 47 47 47 48 48 48 48 49 49 49 49 49 50 50 50 50 50 51 51 52 53 54 54 55
41 41 41 41 41 40 40 39 38 38 37 36 36 37 37 38 38 39 40 41 41 41 41 41 41 41 41 41 41 41 41 41 41 41 41 42 42 43 43 43 43 43 43 43 43 43 43 43 43 43 44 44 44 45 45 45 46 46 46 46 46 46 46 47 47 47 47 48 48 48 48 49 49 49 49 49 49 49 49 50 50 51 52 53 54 55
41 41 41 41 40 40 39 39 38 37 37 36 37 37 37 37 38 39 40 40 41 41 41 41 41 41 41 41 41 41 41 41 41 41 41 42 42 43 43 43 43 43 43 43 43 43 43 43 43 43 44 44 44 45 45 45 45 45 45 45 45 45 46 46 46 47 47 47 48 48 48 48 48 48 48 49 49 49 49 49 49 50 51 52 53 54
41 41 40 40 40 39 39 38 38 37 37 37 37 37 37 37 38 39 40 40 41 41 41 41 41 41 41 42 42 42 41 41 41 41 41 42 42 42 42 43 43 42 42 42 42 43 43 43 43 43 44 44 44 44 44 45 44 44 44 44 45 45 45 45 46 46 47 47 47 48 48 48 48 48 48 48 48 48 48 49 49 50 51 52 53 54
41 41 40 40 40 39 39 38 38 38 38 38 37 37 37 38 38 39 39 40 40 41 41 41 41 41 42 42 42 42 41 42 41 41 41 42 42 42 42 42 42 42 42 42 42 43 43 43 43 44 44 44 44 44 44 44 44 44 44 44 44 44 44 45 45 46 46 47 47 47 47 47 47 48 48 48 48 48 48 49 49 50 50 51 52 53
41 41 40 40 40 39 39 39 38 38 38 38 38 38 38 38 38 39 39 39 39 40 40 41 41 42 42 42 43 42 42 42 42 42 42 42 42 42 42 42 42 42 42 42 42 43 43 43 43 44 44 44 44 44 44 44 44 44 44 44 44 44 44 44 45 45 46 46 46 46 47 47 47 47 48 48 48 48 48 49 49 50 50 51 52 52
41 41 40 40 40 39 39 39 39 39 39 39 39 39 39 39 39 39 39 39 39 39 40 40 41 41 41 42 43 43 43 43 43 42 42 41 42 42 42 43 43 42 42 43 43 43 43 43 43 43 43 43 43 43 43 44 43 43 43 43 43 43 44 44 44 45 45 45 46 46 46 47 47 47 47 48 48 48 49 49 49 50 50 50 51 52
41 41 41 40 40 40 40 39 40 40 40 40 40 40 40 39 39 39 39 39 39 39 40 40 40 41 41 42 42 43 43 43 43 42 42 42 42 43 43 43 43 43 43 43 43 43 43 43 43 43 43 43 43 43 44 44 43 43 43 43 43 43 43 44 44 45 45 45 46 46 46 46 47 47 47 47 48 48 49 49 50 50 50 50 50 51
42 41 41 41 41 41 40 40 40 40 40 41 41 40 40 40 40 40 40 40 40 40 40 40 40 40 40 41 42 42 43 43 43 42 42 43 43 43 43 44 44 44 44 44 44 44 44 43 43 43 43 43 44 44 44 44 43 43 43 43 43 43 43 44 44 44 45 45 45 46 46 46 46 46 47 47 48 48 49 49 49 50 50 49 49 50
42 41 41 41 41 41 41 41 41 41 41 41 41 41 40 40 40 40 40 40 40 40 40 40 40 40 41 41 42 42 43 43 43 43 43 43 43 44 44 44 45 45 45 45 44 44 44 44 44 44 44 44 44 44 44 44 43 43 43 43 43 43 43 44 44 44 45 45 45 45 45 46 46 46 46 47 47 48 48 49 49 49 49 49 49 49
41 41 41 41 41 41 41 41 41 41 41 41 41 41 41 41 41 41 41 41 41 41 41 41 41 41 41 42 42 43 43 43 43 43 44 44 44 44 44 45 45 46 45 45 45 45 45 44 44 44 44 44 44 44 44 44 43 43 43 43 43 43 43 44 44 44 44 44 45 45 45 45 45 46 46 46 47 48 48 48 49 49 48 48 48 48
41 41 41 41 41 41 41 42 42 42 42 42 42 41 41 41 41 41 42 42 42 42 42 42 41 41 42 42 42 43 43 43 44 44 44 44 44 45 45 46 46 46 46 46 46 46 46 45 45 45 45 45 45 44 44 44 44 44 44 44 43 43 43 43 44 44 44 44 44 45 45 45 45 45 46 46 47 47 48 48 48 48 48 47 47 46
41 41 41 41 41 41 42 42 42 42 42 42 42 42 42 42 42 42 42 42 42 42 42 42 42 42 42 42 43 43 43 44 44 44 44 44 45 45 45 46 46 46 46 46 46 46 46 46 46 46 46 46 45 45 45 44 44 44 44 44 44 44 43 43 43 44 44 44 44 44 44 44 44 45 45 46 46 46 47 47 47 47 47 46 46 45
41 41 41 41 41 41 41 42 42 42 42 42 42 42 42 42 42 43 43 43 43 43 43 43 43 43 43 43 43 44 44 44 45 45 44 44 45 45 46 46 46 47 47 47 47 47 47 47 47 47 46 46 46 45 45 45 45 45 45 44 44 44 44 43 43 44 44 44 44 44 44 44 44 44 45 45 45 46 46 46 46 46 46 45 44 44
40 40 40 41 41 41 42 42 42 42 42 42 42 42 42 42 43 43 43 43 43 43 43 43 43 43 44 44 44 44 44 45 45 45 44 44 45 45 45 46 47 47 47 47 47 47 48 48 48 47 47 47 46 46 46 46 45 45 45 45 44 44 44 44 43 43 44 44 44 44 44 44 44 44 44 44 45 45 45 45 45 45 45 44 43 43
39 40 40 40 41 41 41 42 42 42 42 42 42 42 42 43 43 43 44 43 43 44 44 44 44 44 44 44 44 45 45 46 46 45 44 45 45 45 45 46 47 47 47 47 48 48 48 48 48 48 48 47 47 47 47 46 46 46 45 45 45 44 44 44 44 43 43 43 43 43 43 43 43 43 43 43 44 44 44 44 44 44 43 43 42 42
39 40 40 41 41 41 42 42 42 42 42 42 43 43 43 43 44 44 44 44 44 44 44 44 45 45 45 45 45 45 46 46 46 45 45 45 46 45 45 46 47 47 47 47 48 48 48 48 48 48 48 48 48 47 47 47 47 46 46 45 45 45 44 44 44 44 43 43 43 43 43 42 42 42 42 43 43 43 43 43 43 43 42 41 41 41
40 40 41 41 41 42 42 42 42 43 43 43 43 43 44 44 44 44 44 44 45 45 45 45 45 45 45 45 46 46 46 46 46 46 45 46 46 46 46 46 47 47 47 47 48 48 48 48 48 48 49 48 48 48 48 47 47 47 46 46 45 45 44 44 44 44 43 43 43 42 42 42 42 42 42 42 42 42 42 42 42 42 41 40 39 39
41 41 42 42 42 42 43 43 43 43 43 44 44 44 44 45 45 45 45 45 45 45 45 45 46 46 46 46 46 46 46 46 46 46 46 46 46 46 46 46 47 47 47 47 47 48 48 48 48 48 49 49 49 48 48 48 48 47 47 46 46 45 45 44 44 43 43 43 42 42 42 41 41 41 41 41 41 41 41 41 41 40 39 39 38 38
42 42 43 43 43 44 44 44 44 44 44 45 45 45 45 45 45 46 46 46 46 46 46 46 46 46 46 46 46 46 47 47 47 47 46 46 46 46 46 46 47 47 47 47 47 48 48 48 48 48 48 48 48 48 48 48 48 48 47 47 46 45 45 44 44 44 43 43 42 42 41 41 41 41 40 40 40 40 40 40 40 39 38 37 37 37
43 43 44 44 45 45 45 45 45 45 46 46 46 46 46 47 47 46 47 47 47 47 47 47 47 47 47 47 47 47 47 48 48 47 47 47 47 47 47 47 47 47 47 47 48 48 48 48 48 48 48 48 48 48 48 48 48 48 47 47 46 46 45 45 44 44 43 42 42 41 41 40 40 40 40 39 39 39 39 38 38 38 37 36 35 35
44 44 45 45 46 46 46 46 47 47 47 47 48 48 48 48 48 48 48 48 48 48 48 48 48 48 48 48 48 48 48 48 48 48 48 48 47 47 47 47 47 47 48 48 48 48 48 48 48 48 48 48 48 48 48 48 48 48 47 47 47 46 46 45 45 44 43 42 42 41 40 40 39 39 39 38 38 38 37 37 37 36 36 35 34 35
44 45 45 46 46 47 47 47 48 48 48 49 49 49 49 49 49 49 49 49 49 49 49 49 49 49 49 49 48 49 49 49 48 48 48 48 48 48 48 48 48 48 48 48 48 48 48 48 48 48 49 49 48 48 48 48 48 48 47 47 47 46 46 45 45 44 43 43 42 41 40 39 39 38 38 37 37 36 36 36 36 35 35 34 34 34
45 45 46 46 47 47 48 48 49 49 49 50 50 50 50 50 50 50 50 50 50 50 50 50 50 50 50 50 49 49 49 49 49 49 49 49 49 48 48 48 48 48 49 49 49 48 48 48 49 49 49 49 49 48 48 48 48 47 47 47 47 46 46 46 45 45 44 43 42 41 40 39 38 38 37 36 36 35 35 35 34 34 33 33 33 33
45 46 46 47 48 48 49 49 49 50 50 50 51 51 51 51 51 51 51 51 51 51 51 51 51 51 51 51 50 50 50 50 50 50 49 49 49 49 49 49 49 49 49 49 49 49 49 49 49 49 49 49 49 48 48 48 48 47 47 47 47 47 47 46 46 45 44 43 42 41 40 39 38 37 36 35 35 34 34 33 33 33 32 32 32 32
45 46 47 47 48 49 49 50 50 50 51 51 51 51 52 52 52 52 52 52 52 52 52 52 52 52 52 52 52 51 51 51 51 50 50 50 50 50 50 50 50 50 50 50 50 50 50 50 49 49 49 49 49 49 48 48 48 48 47 47 46 47 47 46 46 45 44 43 42 41 40 39 37 36 35 34 33 33 32 32 31 31 31 31 31 32
45 46 47 47 48 49 50 50 51 51 51 52 52 52 52 53 53 53 53 53 53 53 53 53 53 53 53 53 53 52 52 52 52 51 51 51 51 50 50 50 50 50 50 50 50 50 50 50 50 50 50 49 49 49 48 48 48 48 47 47 47 47 46 46 46 46 45 44 42 41 40 38 37 36 35 33 32 31 31 30 30 30 30 30 30 31
45 46 46 47 48 49 50 51 51 52 52 53 53 53 53 53 53 53 54 54 54 54 54 54 53 53 53 54 54 53 53 53 53 52 52 52 52 51 51 51 51 51 51 51 51 51 51 51 50 50 50 50 49 49 49 48 48 48 48 47 47 46 46 46 46 46 45 44 43 41 40 39 37 35 34 33 31 30 29 29 28 28 29 29 29 31
46 46 46 47 47 48 50 50 51 52 53 53 54 54 54 54 54 54 54 54 55 54 54 54 54 54 54 54 54 54 54 54 54 53 53 53 52 52 52 52 52 52 52 52 52 51 51 51 51 51 50 50 50 49 49 48 48 48 48 48 47 46 46 46 46 45 45 44 43 42 40 39 37 35 34 32 31 29 28 28 27 27 27 28 29 30
46 46 46 47 47 48 49 50 51 52 53 54 54 55 55 55 55 55 55 55 55 55 55 55 55 55 55 55 55 54 54 54 54 54 54 54 53 53 53 53 53 52 52 52 52 52 52 51 51 51 51 50 50 49 49 49 48 48 48 48 47 47 46 46 45 45 45 44 44 42 41 39 37 35 34 32 30 29 28 27 26 26 26 27 28 29
47 47 47 47 47 48 49 50 51 52 53 54 54 55 55 55 56 56 56 56 56 56 56 55 55 55 55 55 55 55 55 55 55 55 54 54 54 54 53 53 53 53 53 53 52 52 52 52 51 51 51 51 50 50 49 49 49 49 49 48 48 47 46 46 45 45 45 44 44 43 42 40 38 36 34 32 30 29 27 26 25 25 25 26 27 28
48 48 48 48 48 49 49 49 50 51 52 53 54 55 55 56 56 56 56 56 56 56 56 56 56 55 55 55 55 55 55 55 55 55 55 55 55 54 54 54 54 53 53 53 53 52 52 52 52 51 51 51 50 50 50 50 49 49 49 48 48 47 47 46 46 45 45 45 44 43 42 41 39 37 35 33 31 29 28 26 25 25 25 25 26 28
50 50 50 50 50 50 50 50 50 51 52 53 54 54 55 56 56 56 57 57 57 57 57 56 56 56 56 56 56 55 55 55 55 55 55 55 55 55 55 54 54 54 53 53 53 52 52 52 52 51 51 51 50 50 50 50 50 49 49 49 48 48 47 47 46 46 45 45 44 44 42 41 40 38 36 34 32 30 28 27 26 25 25 25 25 27
51 51 51 51 51 51 51 51 51 51 52 53 53 54 55 55 56 56 57 57 57 57 57 57 57 57 57 56 56 56 56 55 55 56 56 56 56 55 55 55 55 54 54 53 53 53 52 52 52 51 51 51 51 50 50 50 50 50 49 49 48 48 48 47 47 46 46 45 45 44 43 42 41 39 37 35 33 31 29 28 27 26 25 25 25 26
53 52 52 52 52 52 52 52 52 52 53 53 53 54 55 55 55 56 56 57 57 57 57 57 57 57 57 57 56 56 56 56 56 56 56 56 56 56 56 55 55 54 54 54 53 53 52 52 52 51 51 51 51 51 50 50 50 50 49 49 49 49 48 48 47 47 46 46 45 45 44 43 42 40 38 36 34 32 31 29 28 27 27 26 26 26
54 54 54 53 53 53 53 53 53 53 54 54 54 54 55 55 55 56 56 57 57 57 57 57 57 57 57 57 57 57 56 56 56 56 56 56 56 56 55 55 55 55 54 54 53 53 53 52 52 51 51 51 51 51 50 50 50 50 49 49 49 49 49 48 48 47 47 47 46 45 45 44 43 41 40 38 36 34 32 31 30 29 28 27 27 26
56 56 55 55 54 54 54 54 54 54 54 55 55 55 55 55 56 56 56 56 57 57 57 57 57 57 57 57 57 57 57 56 56 56 56 56 55 55 55 55 55 54 54 54 53 53 53 52 52 51 51 51 51 51 51 50 50 49 49 49 49 49 49 49 49 48 48 47 47 46 45 45 44 43 41 39 37 36 34 32 31 31 30 29 28 28
Wind_Direction
243 243 243 244 245 247 247 247 246 247 248 249 251 252 253 253 253 253 252 252 251 250 250 249 248 248 248 248 248 248 247 247 247 246 246 246 246 247 247 248 249 249 250 251 251 252 252 253 253 253 254 254 254 254 254 254 254 254 254 254 254 254 254 254 254 254 254 254 254 254 254 254 254 254 254 253 253 253 252 252 252 252 252 252 252 252
243 242 243 244 245 246 246 245 245 246 248 250 251 252 253 253 253 253 252 251 251 250 250 249 249 248 248 248 247 247 246 246 245 245 245 245 246 246 247 248 249 250 250 251 252 252 252 253 253 254 254 254 255 255 255 255 255 255 255 255 255 256 256 256 256 256 256 255 255 255 255 255 255 255 255 254 254 254 253 253 252 252 252 252 252 252
243 243 243 244 244 244 244 243 244 246 248 249 251 252 252 252 252 252 251 250 250 249 249 249 249 249 248 247 246 246 245 244 244 245 245 245 246 246 247 248 249 250 251 251 252 252 253 253 254 254 254 255 255 255 256 256 256 256 256 257 257 257 257 257 258 257 257 257 257 257 257 257 256 256 256 256 255 255 254 254 254 253 253 252 252 252
243 243 243 243 242 242 242 243 244 246 248 249 250 251 251 252 251 251 250 249 249 249 249 249 249 249 248 247 246 245 244 244 244 245 245 246 246 247 247 248 249 250 250 251 252 253 253 254 254 254 255 255 256 256 256 256 257 257 258 258 258 259 259 259 259 259 259 258 258 258 258 258 258 257 257 257 257 256 256 255 255 254 254 253 253 253
242 241 241 241 240 240 241 243 245 246 247 248 249 250 250 251 250 250 250 249 248 248 248 248 248 248 247 246 245 244 243 243 244 244 245 246 247 247 247 248 249 249 250 251 252 253 253 254 254 255 255 256 256 256 257 257 258 258 259 259 259 259 260 260 259 259 259 259 259 259 259 259 258 258 258 258 257 257 257 256 256 255 255 254 254 253
240 239 239 239 239 240 242 243 245 247 248 248 249 249 250 250 250 250 249 249 248 248 247 247 247 247 246 246 245 244 243 243 243 244 245 246 247 247 248 248 249 249 250 251 252 253 253 254 254 255 255 256 256 257 257 258 258 259 259 259 260 260 260 260 260 260 260 260 259 259 259 259 259 258 258 258 258 258 257 257 257 256 256 255 255 254
237 237 238 238 239 241 242 244 246 247 248 248 249 249 249 249 249 249 249 249 248 247 247 246 246 245 245 244 244 244 243 243 243 243 244 245 246 247 248 248 249 250 250 251 252 252 253 253 254 254 255 256 256 257 257 258 258 259 259 259 260 260 260 260 260 260 260 260 259 259 259 259 259 258 258 258 258 258 258 257 257 257 256 256 255 255
235 236 237 238 240 241 243 245 246 247 248 248 249 248 248 248 248 248 248 248 248 247 246 245 244 244 243 243 243 243 243 243 243 243 243 244 245 246 247 248 249 250 250 251 251 252 252 253 253 254 255 255 256 257 257 258 258 259 259 259 260 260 260 260 260 260 260 260 259 259 259 259 259 258 258 258 258 258 258 257 257 257 256 256 255 255
234 235 236 238 240 242 243 245 246 247 248 248 248 248 248 247 248 248 248 247 247 246 245 244 243 242 242 242 242 242 243 243 243 243 243 244 245 246 247 248 249 250 250 251 251 252 252 253 253 254 255 255 256 257 257 258 259 259 259 260 260 260 260 260 260 260 260 260 259 259 259 259 259 259 259 258 258 258 258 257 257 257 256 256 255 255
233 234 236 238 240 241 243 244 245 246 247 247 247 247 247 247 247 247 247 246 246 245 244 243 241 241 240 241 241 241 242 242 243 243 243 244 245 246 247 248 249 250 250 251 252 252 252 253 253 254 255 255 256 257 258 258 259 259 260 260 260 260 260 260 260 260 260 260 260 260 260 260 260 259 259 259 259 259 258 258 258 257 257 256 256 255
233 234 235 237 239 241 242 244 245 246 246 247 246 246 246 246 246 246 246 245 245 244 243 241 240 239 239 240 240 241 241 242 243 243 244 245 246 247 247 248 249 250 251 251 252 252 252 253 254 254 255 256 257 257 258 259 259 260 260 260 261 261 261 261 261 261 261 261 261 261 261 261 261 261 261 261 261 260 260 260 260 259 259 258 258 257
233 234 235 237 239 240 242 243 244 245 246 246 245 245 245 245 245 245 245 244 244 243 242 240 239 239 239 239 239 240 241 242 243 244 245 246 246 247 248 249 250 250 251 251 252 252 253 253 254 255 255 256 257 258 258 259 260 260 260 261 261 262 262 262 262 262 262 262 262 262 262 262 262 263 263 263 263 263 263 263 262 262 262 262 261 261
233 235 236 237 239 240 241 242 243 244 244 245 245 244 244 244 244 244 244 243 243 242 241 240 239 239 239 239 240 240 242 243 244 245 246 247 247 248 249 249 250 251 251 252 252 253 253 254 254 255 256 257 257 258 259 259 260 260 261 261 262 262 263 263 263 263 263 263 264 264 264 264 264 265 265 265 266 266 266 266 266 266 266 266 265 265
234 235 236 237 238 239 240 241 242 243 244 244 245 245 244 244 244 244 243 243 242 242 241 241 240 240 239 240 240 241 242 243 245 246 247 248 248 249 250 250 251 251 252 252 253 253 254 254 255 255 256 257 257 258 259 259 260 260 261 262 262 263 263 264 264 264 265 265 265 265 265 266 266 267 267 268 268 269 270 270 271 271 271 271 270 269
234 235 236 237 238 239 239 240 242 243 243 244 245 245 245 244 243 243 243 242 242 241 241 241 241 241 241 241 242 242 243 244 245 246 247 248 249 250 251 251 252 252 253 253 254 254 255 255 255 256 256 257 257 258 258 259 260 261 262 262 263 264 264 265 265 265 266 266 266 267 267 268 268 269 270 270 271 272 273 274 275 275 276 275 275 274
234 235 236 237 238 238 239 240 241 242 243 244 244 244 244 244 243 243 242 242 241 241 241 242 242 242 242 243 243 244 244 245 245 246 248 249 250 251 251 252 252 253 254 254 255 255 255 255 255 256 256 256 257 257 258 259 260 261 262 263 264 264 265 265 266 266 266 267 267 268 269 269 270 271 272 273 274 275 276 277 279 279 280 280 279 278
234 235 236 237 237 238 239 240 241 242 242 243 243 243 244 243 243 242 242 241 241 241 241 242 242 243 243 244 245 245 245 246 246 247 248 249 250 251 252 253 253 254 254 255 255 255 255 255 255 256 256 256 257 257 258 259 260 261 262 263 264 265 265 266 266 267 267 268 269 269 270 271 272 273 274 275 276 277 279 281 282 283 283 283 282 281
234 235 235 236 237 238 238 239 240 241 242 242 243 243 243 243 242 242 241 241 241 240 240 241 242 243 243 244 245 246 246 247 247 248 248 249 251 252 253 253 254 254 255 255 255 255 255 255 255 256 256 256 257 258 259 260 261 262 262 263 264 265 265 266 267 267 268 269 270 271 271 272 273 275 276 277 278 280 282 283 285 286 286 286 285 283
234 234 235 236 237 238 238 239 240 241 242 242 243 243 243 243 242 242 241 241 241 240 240 241 241 242 243 244 245 247 247 248 248 248 249 250 251 252 253 254 254 255 255 255 255 255 255 255 256 256 256 257 258 258 259 260 261 262 263 263 264 265 266 266 267 268 269 270 271 272 273 274 275 276 277 279 280 282 284 286 287 288 288 287 286 284
233 234 235 236 237 238 239 240 241 242 242 243 243 243 243 243 242 242 242 242 242 241 241 241 241 242 243 244 245 247 248 249 249 249 250 250 251 253 254 254 254 255 255 255 255 255 256 256 256 257 257 258 258 259 260 260 261 262 263 263 264 265 266 267 268 268 269 270 271 272 273 275 276 277 279 281 282 284 286 288 289 289 289 288 287 284
233 234 235 236 238 239 240 240 241 242 243 243 243 243 243 243 243 243 243 243 243 243 243 242 242 243 243 244 245 247 248 249 249 250 251 251 252 253 254 254 255 255 255 255 255 256 256 257 257 258 258 259 259 260 260 261 261 262 263 264 265 266 266 267 268 268 269 270 271 272 274 275 277 278 280 282 284 286 288 289 290 291 290 289 287 284
234 235 235 237 238 239 240 241 242 243 243 244 244 244 244 244 244 244 244 244 244 244 244 244 244 244 244 245 246 247 248 249 250 251 251 252 252 253 254 254 255 255 255 255 256 256 257 257 258 258 259 259 260 260 261 261 262 263 264 264 265 266 267 267 268 268 269 270 271 273 274 276 277 279 281 284 286 288 289 291 292 292 291 290 287 284
235 236 237 238 239 240 241 242 243 243 244 245 245 245 245 245 244 244 245 245 245 245 245 245 245 245 245 246 246 247 248 249 250 251 251 252 252 253 254 254 255 255 255 256 256 257 258 258 259 259 259 260 260 261 261 262 263 264 264 265 266 266 267 267 268 269 270 271 272 273 275 277 278 281 283 285 287 289 290 292 293 293 292 290 287 283
236 237 238 239 240 242 242 243 244 244 245 246 246 246 246 245 245 245 245 245 245 245 245 245 245 246 246 246 247 247 248 249 250 250 251 251 252 253 253 254 254 255 255 256 257 257 258 258 259 260 260 260 261 261 262 263 264 265 265 266 266 267 267 268 269 270 271 272 273 274 276 278 279 282 284 286 288 290 291 293 294 294 293 291 287 283
238 239 240 241 242 243 244 244 245 246 246 247 247 247 247 247 246 246 246 245 245 245 245 245 246 246 246 247 247 248 248 249 250 250 251 251 252 252 253 254 254 255 256 256 257 257 258 259 259 260 260 261 261 262 263 264 264 265 266 266 267 268 268 269 270 271 272 273 274 275 277 278 280 282 284 286 288 290 292 294 295 294 293 291 287 282
240 241 242 243 244 244 245 246 246 247 247 247 247 248 248 247 247 247 246 246 246 246 246 246 246 246 247 247 248 248 249 249 250 250 251 251 251 252 253 254 254 255 256 256 257 257 258 258 259 260 260 261 262 263 263 264 265 266 266 267 268 269 269 270 271 272 273 274 275 276 277 279 281 283 285 287 289 291 293 294 295 295 293 291 286 281
242 242 243 244 244 245 246 246 247 247 248 248 248 248 248 248 248 248 247 247 247 247 247 247 247 247 247 248 248 249 249 249 250 250 251 251 251 252 253 253 254 255 255 256 257 257 258 258 259 260 261 261 262 263 264 265 265 266 267 267 268 269 270 271 272 273 274 275 275 277 278 279 281 283 285 287 289 292 294 295 296 295 293 290 286 280
243 244 244 245 245 246 246 247 247 248 248 248 248 248 249 249 249 249 248 248 248 248 247 247 247 247 247 248 248 249 249 249 250 250 250 251 251 252 253 253 254 255 255 256 256 257 258 258 259 260 260 261 262 263 264 264 265 266 267 268 269 270 270 271 272 273 274 275 276 277 278 280 281 283 285 288 290 292 294 295 296 295 293 290 285 278
244 245 245 246 246 247 247 247 248 248 248 249 249 249 249 249 249 249 249 249 249 249 248 248 248 248 248 248 248 248 249 249 249 250 250 251 251 252 253 253 254 254 255 256 256 257 257 258 259 260 260 261 262 263 263 264 265 266 267 268 269 270 270 271 272 273 274 275 276 277 278 280 281 283 285 288 290 292 294 295 296 295 293 289 284 277
246 246 247 247 247 248 248 248 249 249 249 249 249 249 250 250 250 250 250 250 249 249 249 249 248 248 248 248 248 248 249 249 250 250 251 251 252 252 253 253 254 254 255 255 256 256 257 258 258 259 260 261 261 262 263 264 265 266 266 267 268 269 270 271 272 273 274 275 276 277 278 280 281 283 285 288 290 292 294 295 296 295 292 289 283 275
248 248 248 249 249 249 249 250 250 250 250 250 250 250 250 250 250 250 250 250 250 250 250 249 249 249 248 248 248 249 249 249 250 250 251 251 252 253 253 253 254 254 255 255 256 256 256 257 258 259 259 260 261 261 262 263 264 265 266 267 268 269 270 271 272 273 274 275 276 277 278 280 281 283 285 287 290 292 294 295 295 294 292 287 281 274
250 250 250 250 250 250 251 251 251 251 251 251 251 251 250 250 250 251 250 250 250 250 250 250 249 249 249 249 249 249 250 250 250 250 251 251 252 253 253 254 255 255 255 256 256 256 256 257 257 258 259 260 260 261 262 263 263 264 265 266 267 268 269 270 271 273 274 275 276 277 278 279 281 282 285 287 289 292 294 295 295 293 291 286 280 272
251 251 251 251 251 251 252 252 252 252 252 252 252 252 251 251 251 251 251 251 251 250 250 250 250 250 250 250 250 250 251 251 251 251 251 252 252 253 254 254 255 256 256 256 256 257 257 257 257 257 258 259 260 261 261 262 263 264 265 266 267 268 269 270 271 272 273 274 275 276 278 279 280 282 284 286 289 291 293 294 294 292 289 284 278 270
251 252 252 252 252 252 252 252 252 253 253 253 253 253 252 252 252 252 252 251 251 251 251 251 251 251 251 251 251 251 251 251 251 251 251 252 253 253 254 255 255 256 256 257 257 257 257 257 257 257 257 258 259 260 261 261 262 263 264 265 266 267 268 269 270 271 272 273 274 275 277 278 280 281 283 285 288 290 292 293 293 291 288 283 276 267
252 252 252 252 252 252 252 253 253 253 253 253 253 253 253 253 253 253 253 252 252 252 252 252 252 252 251 251 251 252 252 252 252 252 252 253 253 254 254 255 256 256 257 257 257 258 258 257 257 257 257 257 258 258 259 260 261 262 264 265 266 266 267 268 269 270 271 272 273 274 276 277 279 280 282 285 287 289 291 292 292 290 286 281 273 264
253 253 253 253 253 253 253 253 253 253 253 253 254 254 254 254 254 254 254 254 253 253 253 253 252 252 252 252 252 253 253 253 253 253 253 253 254 254 255 256 256 257 257 258 258 258 258 258 258 258 257 257 257 257 258 259 260 261 262 264 265 265 267 268 268 269 270 271 272 273 274 276 277 279 281 284 286 288 290 291 290 288 284 279 271 262
254 254 254 254 254 254 254 254 254 254 254 254 254 254 254 254 254 254 254 254 254 254 254 254 253 253 253 253 253 253 254 254 254 254 254 254 254 255 256 256 257 257 258 258 258 259 259 259 258 258 257 257 256 256 257 258 259 260 261 262 263 264 265 266 268 268 269 270 271 272 273 275 276 278 280 282 285 287 289 290 289 287 283 277 269 260
256 256 256 256 256 255 255 255 255 255 254 254 254 254 254 254 254 254 254 254 254 254 254 254 254 254 254 254 254 254 255 255 255 255 255 255 255 256 256 257 257 257 258 258 259 259 259 259 259 258 258 257 257 257 256 257 257 258 259 261 262 263 264 265 266 267 268 269 270 271 272 273 275 277 279 281 283 286 288 288 288 286 282 276 268 259
258 258 257 257 257 257 257 257 256 256 256 255 255 255 255 255 255 255 255 255 255 255 255 255 255 255 255 255 255 255 256 256 256 256 256 256 256 256 257 257 257 258 258 259 259 259 259 259 259 259 258 258 257 257 256 256 256 257 258 259 260 261 262 264 265 266 267 268 269 270 271 272 274 275 277 279 282 284 286 287 287 284 280 275 267 258
259 259 259 259 259 259 258 258 258 257 257 257 257 256 256 256 255 255 255 255 255 255 255 255 255 255 255 255 255 256 256 256 257 257 257 257 257 257 257 258 258 258 259 259 259 260 260 260 259 259 259 258 257 257 256 256 256 256 256 257 258 259 261 262 263 264 265 266 267 268 269 271 272 274 275 278 280 283 284 285 285 283 279 273 265 257
260 260 260 260 260 260 260 260 259 259 259 258 258 257 257 257 256 256 256 255 255 255 255 255 255 255 255 256 256 256 256 257 257 257 258 258 258 258 258 258 258 259 259 259 259 260 260 260 260 259 259 258 258 257 256 256 255 255 255 255 256 257 259 260 262 263 264 265 266 266 268 269 270 272 274 276 278 280 282 283 283 281 278 272 264 256
260 261 261 261 261 261 261 261 260 260 260 259 259 258 258 258 257 257 256 256 256 255 255 255 255 255 256 256 256 256 256 257 257 257 258 258 258 258 258 258 258 259 259 259 259 259 260 260 260 260 259 259 258 257 256 256 255 255 254 254 255 255 257 258 259 261 262 263 264 265 266 267 268 269 271 273 276 278 280 281 281 279 276 271 264 256
261 262 262 262 262 262 261 261 260 260 260 259 259 259 259 258 258 258 257 257 256 256 256 255 255 255 255 256 256 256 256 257 257 257 258 258 258 258 258 258 258 259 259 259 259 259 259 259 259 259 259 259 258 257 257 256 255 254 254 254 253 254 254 256 257 259 260 261 262 263 264 265 266 267 269 271 273 275 277 278 278 277 274 269 263 256
262 263 263 263 263 263 262 262 261 260 260 260 259 259 259 259 259 258 258 257 257 257 256 256 256 255 256 256 256 256 256 257 257 257 257 258 258 258 258 258 258 258 258 259 259 259 259 259 259 259 259 259 258 258 257 256 255 254 253 253 253 253 253 254 255 256 258 259 260 261 262 263 264 265 266 268 270 272 273 275 275 274 271 268 262 256
263 263 264 264 264 264 263 263 262 261 260 260 259 259 259 259 259 258 258 258 257 257 257 256 256 256 256 256 256 256 256 257 257 257 257 257 257 258 258 258 258 258 258 258 258 258 258 259 259 259 259 259 258 258 257 256 255 254 253 252 252 252 252 252 253 254 255 256 258 259 260 261 262 263 263 265 267 268 270 271 272 271 269 265 261 255
263 264 264 265 265 265 264 264 263 262 261 260 259 259 259 258 258 258 258 258 257 257 257 256 256 256 256 256 256 256 256 256 257 257 257 257 257 257 257 257 258 258 258 258 257 258 258 258 258 258 258 258 258 258 257 256 255 254 253 252 251 251 251 251 252 252 253 254 255 256 257 258 259 260 261 262 263 265 267 268 268 268 266 263 259 255
264 264 264 265 265 265 265 265 264 263 262 261 260 259 258 258 258 258 258 257 257 257 257 256 256 256 256 256 256 256 256 256 256 257 257 257 257 257 257 257 257 257 257 257 257 257 257 257 257 257 257 257 257 257 256 256 255 254 252 251 251 250 250 250 250 251 251 252 253 254 255 256 257 257 258 259 260 261 263 264 264 264 263 260 257 253
264 264 265 265 265 265 265 265 265 264 263 261 260 259 259 258 258 257 257 257 257 257 256 256 256 255 255 255 255 255 256 256 256 256 256 257 257 257 256 256 256 256 256 256 256 256 256 256 256 256 256 257 256 256 256 255 255 254 252 251 250 250 249 249 249 250 250 250 251 252 252 253 254 255 255 256 257 258 259 260 261 261 260 258 255 252
265 264 265 265 265 265 265 265 265 264 263 262 261 260 259 258 258 257 257 257 256 256 256 256 255 255 255 255 255 255 255 255 255 256 256 256 256 256 256 256 256 256 255 255 255 255 255 255 255 255 255 256 256 255 255 254 254 253 252 251 250 249 249 248 248 249 249 249 250 250 250 251 252 252 253 253 254 255 256 258 258 259 258 256 254 251
264 265 265 265 265 264 264 265 264 264 263 262 261 260 259 258 258 257 257 256 256 256 256 256 255 255 255 255 255 255 255 255 255 255 256 256 256 256 256 256 256 256 255 255 255 255 255 255 255 255 255 255 255 255 254 254 253 252 252 251 250 249 248 248 248 247 248 248 248 248 249 249 250 250 251 251 251 252 254 255 256 257 256 255 253 251
264 264 264 265 264 264 264 264 264 263 263 262 261 260 259 258 258 257 257 256 256 256 256 256 255 255 255 255 255 255 255 255 255 255 255 256 256 256 256 256 256 256 256 256 255 255 255 255 255 255 255 255 254 254 254 253 253 252 251 250 249 249 248 247 247 246 246 247 247 247 248 248 249 249 249 250 250 250 251 252 254 255 255 255 253 251